Temperature
16 15 15 15 14 14 14 14 14 14 14 14 13 13 13 13 13 13 13 13 13 13 13 13 13 13 13 13 13 14 14 14 14 14 14 14 14 14 14 14 14 14 15
16 15 15 15 15 14 14 14 14 14 14 14 13 13 13 13 13 13 13 13 13 13 13 13 13 13 13 13 13 13 13 13 14 14 14 14 14 14 14 14 14 14 14
16 16 15 15 15 14 14 14 14 14 14 14 14 13 13 13 13 13 13 13 13 13 13 13 13 13 13 13 13 13 13 13 13 13 13 13 13 13 14 14 14 14 14
16 16 16 15 15 15 14 14 14 14 14 14 14 14 13 13 13 13 13 13 13 13 13 13 13 13 13 13 13 13 13 13 13 13 13 13 13 13 13 13 13 13 13
17 16 16 15 15 15 14 14 14 14 14 14 14 14 13 13 13 13 13 13 13 13 13 13 13 13 13 13 13 13 13 13 13 13 13 13 13 13 13 13 13 13 13
17 16 16 16 15 15 15 14 14 14 14 14 14 14 14 14 13 13 13 13 13 13 13 13 13 13 13 13 13 13 13 13 13 13 13 13 13 13 13 13 13 13 13
17 17 16 16 15 15 15 14 14 14 14 14 14 14 14 14 13 13 13 13 13 13 13 13 13 13 13 13 13 13 13 13 13 13 13 13 13 13 13 13 12 13 13
17 17 17 16 16 15 15 15 14 14 14 14 14 14 14 14 13 13 13 13 13 13 13 13 13 13 13 13 13 13 13 13 13 12 12 12 12 12 12 12 12 12 12
18 17 17 16 16 15 15 15 15 14 14 14 14 14 14 14 13 13 13 13 13 13 13 12 12 12 12 12 12 12 12 12 12 12 12 12 12 12 12 12 12 12 12
18 18 17 17 16 16 15 15 15 14 14 14 14 14 14 14 14 13 13 13 13 13 13 12 12 12 12 12 12 12 12 12 12 12 12 12 12 12 12 12 12 12 12
18 18 17 17 17 16 16 15 15 15 14 14 14 14 14 14 13 13 13 13 13 13 13 12 12 12 12 12 12 12 12 12 12 12 12 12 12 12 12 12 12 11 11
18 18 17 17 17 16 16 15 15 15 14 14 14 14 14 13 13 13 13 13 13 13 13 12 12 12 12 12 12 12 12 12 12 12 12 12 12 11 11 11 11 11 11
18 17 17 17 17 16 16 15 15 15 14 14 14 14 14 13 13 13 13 13 13 13 12 12 12 12 12 12 12 11 11 11 11 11 11 11 11 11 11 11 11 11 11
18 17 17 17 16 16 16 15 15 15 14 14 14 14 14 13 13 13 13 13 12 12 12 12 11 11 11 11 11 11 11 11 11 11 11 11 10 10 10 10 10 10 10
17 17 17 16 16 16 16 15 15 15 15 14 14 14 13 13 13 13 13 12 12 12 12 11 11 11 11 11 11 11 11 10 10 10 10 10 10 10 10 10 10 10 10
17 17 16 16 16 16 15 15 15 14 14 14 14 14 13 13 13 13 12 12 12 12 11 11 11 11 10 10 10 10 10 10 10 10 10 10 9 9 9 9 9 9 9
16 16 16 16 16 15 15 15 14 14 14 14 13 13 13 13 12 12 12 12 11 11 11 11 11 10 10 10 10 10 10 9 9 9 9 9 9 9 9 8 8 8 8
16 16 16 16 15 15 15 14 14 14 14 13 13 13 12 12 12 12 11 11 11 11 11 10 10 10 10 9 9 9 9 9 9 8 8 8 8 8 8 7 7 7 7
15 15 15 15 15 14 14 14 13 13 13 13 13 12 12 12 11 11 11 11 11 10 10 10 10 9 9 9 9 8 8 8 8 8 8 7 7 7 7 7 6 6 6
15 15 14 14 14 14 13 13 13 13 12 12 12 12 12 11 11 11 11 10 10 10 10 10 9 9 9 8 8 8 8 8 7 7 7 7 6 6 6 6 6 5 5
14 14 14 13 13 13 13 13 12 12 12 12 12 12 12 11 11 11 10 10 10 10 9 9 9 8 8 8 7 7 7 7 7 6 6 6 6 6 5 5 5 5 4
13 13 13 13 13 13 12 12 12 12 12 11 11 11 11 11 10 10 10 10 9 9 9 8 8 8 7 7 7 7 6 6 6 6 6 5 5 5 5 5 4 4 4
12 12 12 12 12 12 12 12 11 11 11 11 11 11 10 10 10 10 9 9 9 8 8 8 7 7 7 6 6 6 6 6 5 5 5 5 5 4 4 4 3 3 3
12 12 11 11 11 11 11 11 11 11 11 10 10 10 10 10 9 9 9 9 8 8 7 7 7 7 6 6 6 5 5 5 5 5 4 4 4 4 4 3 3 2 2
11 11 11 11 11 11 11 10 10 10 10 10 9 9 9 9 9 8 8 8 8 7 7 6 6 6 6 5 5 5 5 4 4 4 4 4 3 3 3 3 2 2 2
10 10 10 10 10 10 10 10 10 10 10 9 9 9 9 8 8 8 8 7 7 6 6 6 6 5 5 5 5 4 4 4 4 4 3 3 3 3 2 2 2 1 1
Wind_Speed
7 5 5 4 3 2 2 2 2 2 1 0 1 1 1 1 1 1 0 1 1 1 1 1 0 1 1 1 1 2 2 3 2 1 0 0 0 1 0 1 2 3 5
7 6 5 4 3 3 2 2 2 2 1 1 0 1 1 1 1 1 0 0 1 1 0 1 0 1 2 1 1 1 1 2 3 2 0 0 0 1 1 1 1 2 3
7 7 5 5 4 4 3 2 2 1 1 0 1 1 1 1 1 0 1 0 1 1 1 1 1 2 1 1 2 1 1 1 2 3 1 0 0 0 1 0 0 0 1
8 7 7 6 6 5 4 3 2 1 1 1 1 0 0 0 1 1 1 1 1 0 0 1 1 2 2 2 2 2 2 2 2 2 1 0 0 1 1 0 1 1 1
9 8 8 7 6 5 4 3 2 1 2 2 1 0 1 0 0 1 1 1 1 1 1 1 0 1 2 3 2 3 3 2 2 1 1 0 0 0 0 0 0 1 1
10 9 8 7 6 5 5 4 3 2 1 2 1 1 1 1 0 3 3 2 1 2 1 1 1 1 0 2 3 4 5 4 3 2 1 1 2 2 1 1 1 0 2
10 9 8 8 7 6 5 4 4 3 2 2 2 1 1 2 0 2 4 3 2 1 1 1 1 1 1 1 1 1 2 3 5 5 3 3 3 3 2 1 2 2 3
10 9 9 9 8 7 5 5 5 3 3 3 3 2 2 2 1 2 4 3 2 1 1 1 0 1 1 2 2 1 0 1 2 2 4 4 3 3 4 3 3 1 2
10 10 10 10 9 7 7 6 5 3 3 3 3 3 2 2 1 1 3 3 2 1 1 0 1 0 1 2 3 2 0 2 2 2 2 2 3 2 2 2 2 1 1
12 11 10 10 10 9 9 7 4 4 4 3 2 3 3 2 2 2 4 3 2 1 1 2 1 1 2 2 3 3 1 1 1 1 1 2 1 1 0 3 3 2 1
11 9 9 10 10 9 8 5 4 4 4 3 3 2 2 2 2 2 4 3 3 2 1 1 1 2 2 3 3 2 2 1 1 1 1 2 2 2 1 0 2 3 2
8 9 9 9 9 8 7 6 5 5 5 4 3 1 1 1 1 2 4 5 5 3 2 1 1 2 4 4 3 3 3 3 2 2 2 2 1 2 2 1 1 1 2
8 8 8 8 8 8 8 8 5 5 5 4 4 3 2 1 1 2 4 5 5 3 2 2 3 4 4 4 5 5 4 3 3 3 2 1 1 1 2 2 2 2 3
9 9 8 7 7 6 6 7 7 6 6 6 5 5 4 2 2 2 2 2 3 3 2 2 4 5 4 4 4 4 3 3 3 2 1 1 2 2 3 2 2 2 2
8 8 7 7 7 6 5 5 7 7 8 9 7 6 6 5 6 6 5 4 4 4 4 3 3 2 3 2 3 3 3 3 3 2 2 2 2 3 3 3 2 3 2
6 7 6 6 6 6 5 3 2 4 7 10 10 9 6 7 7 7 8 7 7 8 6 3 2 2 2 2 2 2 2 2 2 2 2 2 2 2 3 3 3 3 3
8 7 6 6 7 7 7 7 4 1 1 5 8 10 9 9 8 8 8 7 7 9 5 4 3 3 3 2 2 2 1 1 1 2 2 2 2 2 3 3 3 3 3
8 8 7 7 7 7 8 7 7 7 5 3 3 7 9 9 9 9 9 7 4 4 4 4 4 4 3 3 3 2 2 2 2 2 2 2 2 3 3 2 2 2 1
7 6 6 6 6 7 7 7 6 7 6 5 3 3 6 7 7 8 9 5 6 5 4 4 4 4 4 3 3 3 3 3 2 2 2 2 2 3 2 2 2 2 2
6 8 7 6 6 6 6 7 7 7 7 7 7 6 5 4 4 5 5 5 5 5 5 5 4 4 4 4 4 4 3 3 3 2 2 2 2 2 2 2 1 1 1
5 6 8 7 6 7 7 7 7 7 8 7 7 7 10 7 7 7 7 6 6 6 6 6 5 5 4 4 4 4 4 3 3 2 2 2 2 1 1 1 0 0 0
5 5 6 6 6 6 7 7 7 8 8 8 5 6 11 7 6 6 6 6 6 6 6 6 6 5 5 5 6 5 5 4 3 2 2 2 1 1 1 0 0 0 1
5 5 5 5 5 7 7 6 7 7 8 8 8 7 7 7 7 7 7 6 6 5 6 6 6 5 4 5 6 6 5 5 4 3 3 2 1 1 1 0 1 1 1
6 6 6 6 6 6 7 7 7 7 8 8 8 8 8 8 7 7 7 6 6 6 6 6 6 8 8 7 6 6 6 6 5 4 3 2 1 1 1 1 1 1 1
6 6 6 6 7 7 7 7 7 7 8 8 8 8 8 7 7 7 7 7 8 7 7 7 7 8 10 9 8 8 9 8 6 4 3 2 2 1 1 1 1 2 2
6 6 6 5 6 7 7 7 7 8 8 8 8 8 8 8 8 8 8 7 7 7 7 6 8 10 10 10 10 10 9 7 5 4 3 2 2 2 2 2 2 2 3
Wind_Direction
185 187 182 195 203 195 203 242 257 267 279 15 25 30 20 16 39 64 41 62 93 50 58 130 206 155 116 109 116 125 136 142 162 254 299 283 185 181 48 196 209 206 212
185 179 183 187 186 191 221 247 248 248 261 224 113 47 24 20 46 102 358 58 116 143 195 103 57 129 110 100 113 125 142 156 157 170 275 356 350 200 187 208 240 218 217
177 173 178 184 189 204 226 240 237 233 256 226 108 77 38 43 67 119 154 135 121 172 186 159 170 131 124 121 126 133 141 136 143 155 187 290 347 72 90 85 60 327 252
176 176 183 193 198 206 216 219 221 202 178 172 168 202 267 120 86 103 109 92 89 128 170 158 173 162 172 160 155 159 139 117 125 137 146 86 13 0 85 80 355 328 287
177 183 195 198 197 197 201 205 210 195 183 181 178 299 328 338 148 128 133 126 108 83 62 64 121 173 179 169 159 163 147 132 123 131 144 85 354 30 216 221 248 304 294
184 193 195 189 190 193 196 198 199 207 201 177 197 223 295 300 79 127 131 123 122 113 85 31 7 20 173 181 166 158 157 156 163 162 173 187 232 224 208 196 177 22 297
190 194 191 188 190 198 197 191 202 214 204 197 217 216 251 282 279 118 133 127 116 123 118 66 10 6 36 120 135 128 162 172 173 168 178 207 210 213 188 200 203 202 235
192 195 194 189 193 196 192 199 209 206 202 207 215 212 220 270 244 131 127 114 102 95 121 153 143 330 319 158 144 122 191 253 224 187 189 212 221 218 198 197 201 221 290
195 198 197 192 191 191 196 205 204 196 203 205 203 199 201 262 267 147 122 109 99 32 337 334 118 16 359 126 129 139 72 316 282 190 197 221 224 212 178 131 123 111 328
203 202 196 191 191 195 200 201 195 189 198 196 195 197 196 229 253 164 138 126 121 95 2 354 13 45 29 97 132 144 157 289 343 19 10 1 358 360 120 166 169 164 182
202 195 192 193 195 196 194 190 183 181 179 183 188 203 203 224 241 189 154 147 162 160 158 319 323 17 51 83 119 145 183 179 109 78 44 25 24 17 5 21 175 171 173
187 190 195 197 197 191 179 182 176 171 173 182 179 194 246 257 240 202 169 160 159 154 180 222 249 78 76 72 81 80 88 91 87 76 64 38 15 347 329 336 42 132 145
183 191 196 194 193 182 179 181 176 173 177 187 185 195 225 252 257 205 176 167 160 156 171 151 113 87 72 60 59 67 75 82 88 88 80 16 321 327 359 13 25 50 55
191 195 189 185 187 185 183 182 181 184 186 188 190 198 211 224 233 231 199 175 161 151 138 104 87 76 72 62 54 52 63 85 102 102 93 36 32 44 40 34 38 29 38
195 195 190 186 181 181 183 190 190 198 196 192 198 193 192 211 227 208 185 181 177 167 132 92 76 71 67 53 48 48 51 61 70 63 73 67 56 53 38 28 44 56 62
192 194 191 186 183 178 172 178 207 202 198 195 193 187 199 203 196 185 180 177 168 150 128 123 132 132 132 128 110 77 57 59 61 77 79 79 76 74 60 44 52 64 60
197 196 192 188 186 183 181 180 184 208 168 191 193 190 189 187 183 177 170 164 156 145 137 150 158 163 159 150 137 123 107 73 75 83 82 78 81 75 70 59 54 57 53
202 198 192 194 192 191 192 192 188 183 188 206 212 199 193 190 185 177 161 137 132 145 158 164 170 168 161 155 147 135 119 94 81 80 78 75 78 82 77 65 58 57 45
201 201 198 195 194 194 192 191 190 190 189 181 170 190 191 182 175 169 155 154 164 171 173 167 165 161 159 154 150 140 129 118 107 100 92 88 89 94 90 78 66 51 47
208 203 193 192 192 191 191 191 191 190 189 187 189 190 170 150 162 170 172 168 169 172 170 167 163 158 155 151 144 135 125 119 113 107 107 102 95 100 103 91 80 66 23
209 205 195 192 195 196 195 196 194 192 193 195 199 193 177 176 179 179 179 179 177 176 172 166 162 158 152 146 142 138 135 133 130 127 123 120 114 108 107 106 98 74 355
202 202 202 202 202 200 199 197 195 195 195 193 190 187 181 175 176 178 179 181 180 176 169 162 161 162 161 159 155 150 147 146 145 142 139 137 133 132 134 130 76 328 316
201 203 206 207 206 200 197 196 196 197 195 192 185 181 182 184 182 180 179 175 168 166 164 159 156 155 156 153 154 155 157 164 166 161 156 156 160 174 186 213 241 286 307
203 204 206 208 207 202 198 197 197 196 192 189 186 184 183 183 181 178 174 165 160 157 157 160 161 160 156 149 145 146 149 152 153 156 158 165 178 191 198 235 256 266 289
208 208 208 209 207 203 199 194 192 192 191 189 186 183 180 177 174 171 167 163 159 158 160 158 158 159 159 156 154 154 156 157 157 157 157 164 178 204 227 248 259 278 287
211 212 212 210 208 202 195 193 192 189 188 188 185 180 179 176 173 169 166 163 162 161 160 161 160 161 161 162 163 162 161 162 167 171 166 171 184 210 225 243 258 273 285
Height
1494 1495 1495 1495 1495 1495 1495 1494 1494 1493 1492 1491 1489 1488 1487 1485 1484 1483 1483 1483 1482 1483 1483 1483 1483 1483 1484 1484 1485 1486 1487 1488 1489 1490 1491 1492 1493 1494 1494 1495 1497 1498 1500
1492 1493 1493 1494 1494 1494 1494 1493 1493 1492 1492 1491 1489 1488 1487 1486 1485 1484 1483 1483 1483 1483 1483 1483 1483 1483 1483 1484 1484 1485 1486 1487 1488 1488 1489 1491 1491 1492 1493 1494 1495 1496 1497
1490 1491 1492 1492 1492 1492 1493 1493 1492 1492 1491 1490 1489 1488 1487 1486 1485 1484 1484 1483 1483 1483 1482 1482 1483 1483 1483 1483 1484 1485 1485 1486 1487 1487 1488 1489 1490 1491 1491 1492 1493 1494 1495
1488 1489 1490 1490 1491 1491 1491 1491 1491 1491 1490 1490 1489 1488 1487 1486 1485 1484 1484 1483 1483 1483 1482 1482 1482 1482 1483 1483 1483 1484 1485 1485 1486 1487 1487 1488 1489 1489 1490 1490 1491 1492 1493
1486 1487 1488 1488 1489 1490 1490 1490 1490 1490 1489 1489 1488 1487 1486 1485 1485 1484 1484 1483 1483 1482 1482 1482 1482 1482 1482 1483 1483 1483 1484 1484 1485 1485 1486 1487 1488 1488 1489 1489 1489 1490 1490
1483 1484 1486 1486 1487 1488 1488 1488 1489 1488 1488 1488 1487 1486 1485 1484 1484 1483 1483 1483 1482 1482 1481 1481 1481 1482 1482 1482 1482 1483 1483 1484 1484 1485 1485 1486 1486 1487 1487 1487 1488 1488 1488
1480 1481 1483 1484 1485 1485 1486 1487 1487 1487 1487 1486 1486 1485 1484 1484 1483 1483 1482 1482 1481 1481 1481 1481 1481 1481 1481 1481 1481 1482 1482 1483 1483 1484 1484 1484 1484 1485 1485 1485 1486 1486 1486
1477 1478 1480 1481 1482 1483 1484 1484 1485 1485 1485 1485 1485 1484 1484 1483 1483 1482 1482 1481 1481 1481 1480 1480 1480 1480 1480 1480 1480 1480 1481 1481 1482 1482 1483 1483 1483 1483 1483 1484 1484 1484 1484
1474 1475 1476 1478 1479 1480 1481 1481 1482 1483 1483 1483 1483 1483 1482 1482 1482 1481 1481 1481 1480 1480 1480 1479 1479 1479 1478 1479 1479 1479 1480 1480 1480 1481 1481 1481 1481 1482 1482 1482 1482 1482 1482
1470 1471 1473 1474 1476 1477 1478 1479 1480 1480 1481 1481 1481 1481 1481 1480 1480 1480 1480 1479 1479 1479 1479 1478 1478 1477 1477 1478 1478 1478 1478 1478 1479 1479 1479 1479 1480 1480 1480 1480 1480 1480 1480
1466 1468 1470 1471 1472 1473 1475 1476 1476 1477 1478 1478 1478 1479 1479 1479 1478 1478 1478 1478 1478 1477 1477 1477 1477 1476 1476 1476 1476 1476 1476 1476 1477 1477 1477 1477 1477 1477 1478 1478 1478 1478 1478
1463 1464 1466 1467 1468 1470 1471 1472 1473 1474 1475 1475 1475 1476 1476 1476 1476 1476 1476 1476 1476 1476 1476 1476 1475 1475 1475 1475 1475 1474 1474 1474 1475 1475 1475 1475 1475 1475 1475 1475 1475 1475 1475
1458 1460 1461 1463 1464 1465 1467 1468 1469 1470 1471 1471 1472 1472 1473 1473 1474 1474 1474 1474 1474 1474 1474 1474 1474 1474 1473 1473 1473 1473 1473 1473 1473 1473 1473 1473 1473 1473 1473 1473 1473 1473 1473
1454 1455 1456 1458 1459 1460 1462 1463 1464 1465 1466 1467 1468 1468 1469 1470 1471 1471 1471 1472 1472 1472 1472 1472 1472 1472 1472 1472 1472 1471 1471 1471 1471 1471 1471 1471 1471 1471 1471 1471 1471 1470 1470
1449 1450 1451 1453 1454 1455 1456 1458 1459 1460 1461 1462 1463 1464 1465 1466 1467 1468 1469 1469 1470 1470 1470 1470 1470 1470 1470 1470 1470 1469 1470 1470 1470 1469 1469 1469 1469 1469 1468 1468 1468 1468 1467
1444 1444 1446 1447 1448 1450 1451 1452 1454 1455 1457 1458 1459 1460 1461 1463 1464 1464 1465 1466 1467 1467 1468 1467 1467 1467 1468 1467 1467 1467 1468 1468 1468 1467 1467 1467 1467 1466 1466 1466 1466 1465 1464
1438 1439 1440 1441 1442 1444 1445 1447 1448 1450 1451 1453 1454 1456 1457 1458 1459 1461 1461 1462 1463 1464 1464 1464 1465 1465 1465 1465 1465 1465 1465 1465 1465 1465 1465 1465 1465 1464 1464 1463 1463 1463 1462
1433 1434 1434 1435 1437 1438 1439 1441 1442 1444 1445 1447 1449 1451 1452 1454 1455 1456 1458 1459 1459 1459 1460 1461 1461 1462 1462 1462 1463 1463 1463 1463 1463 1463 1462 1462 1462 1462 1462 1461 1461 1460 1459
1427 1427 1428 1430 1431 1432 1434 1435 1437 1438 1440 1441 1443 1445 1447 1449 1450 1452 1453 1454 1454 1455 1456 1457 1458 1458 1459 1459 1460 1460 1460 1460 1460 1460 1460 1460 1459 1459 1459 1458 1458 1457 1457
1420 1421 1423 1424 1425 1426 1428 1429 1431 1432 1434 1435 1437 1439 1441 1443 1444 1446 1447 1448 1450 1451 1452 1453 1454 1455 1455 1456 1456 1457 1457 1457 1457 1457 1457 1457 1456 1456 1456 1455 1455 1454 1454
1414 1415 1416 1418 1419 1420 1422 1423 1425 1427 1428 1430 1432 1434 1436 1438 1439 1441 1442 1443 1445 1446 1447 1448 1449 1450 1451 1452 1453 1453 1453 1454 1454 1454 1454 1453 1453 1453 1453 1452 1452 1451 1450
1408 1408 1410 1411 1412 1414 1415 1417 1419 1421 1422 1424 1426 1428 1430 1432 1434 1435 1437 1439 1440 1442 1443 1444 1445 1446 1447 1448 1449 1449 1450 1450 1450 1450 1450 1450 1450 1449 1449 1449 1448 1447 1447
1402 1402 1403 1405 1406 1408 1410 1411 1413 1415 1417 1419 1420 1422 1424 1426 1428 1430 1432 1434 1435 1437 1439 1440 1441 1442 1443 1444 1445 1446 1446 1446 1446 1447 1446 1446 1446 1446 1445 1445 1444 1443 1443
1395 1396 1397 1398 1400 1401 1403 1404 1406 1408 1411 1412 1414 1416 1418 1420 1422 1425 1427 1429 1431 1432 1434 1436 1437 1438 1439 1440 1441 1442 1442 1443 1443 1443 1443 1442 1442 1442 1441 1441 1440 1440 1439
1389 1390 1391 1392 1393 1395 1397 1398 1400 1402 1404 1407 1409 1411 1413 1415 1417 1419 1421 1424 1426 1428 1430 1431 1433 1434 1435 1436 1437 1437 1438 1439 1439 1439 1439 1438 1438 1438 1437 1437 1436 1436 1435
1384 1384 1384 1386 1387 1389 1390 1392 1394 1396 1399 1401 1403 1406 1408 1410 1412 1414 1416 1419 1421 1423 1425 1427 1428 1430 1431 1432 1433 1434 1434 1435 1435 1435 1435 1435 1434 1434 1434 1433 1432 1432 1431